Weather History for Trenton, NJ

Change the Weather History Date:

Thursday, December 6, 2012

  Actual Average Record
Temperature  
Mean Temperature 34 °F 38 °F  
Max Temperature 41 °F 46 °F 72 °F (2001)
Min Temperature 27 °F 31 °F 12 °F (1926)
Degree Days  
Heating Degree Days 31 27  
Month to date heating degree days 111 154  
Since 1 July heating degree days 1118 1130  
Cooling Degree Days 0 0  
Month to date cooling degree days 0 0  
Year to date cooling degree days 1234 965  
Moisture  
Dew Point 19 °F    
Average Humidity 56    
Maximum Humidity 72    
Minimum Humidity 40    
Precipitation  
Precipitation 0.00 in 0.13 in 1.30 in (1996)
Month to date precipitation 0.09 0.84  
Year to date precipitation 33.32 43.58  
Sea Level Pressure  
Sea Level Pressure 30.30 in    
Wind  
Wind Speed 2 mph (North)    
Max Wind Speed 12 mph    
Max Gust Speed 16 mph    
Visibility 10 miles    
Events      
T = Trace of Precipitation, MM = Missing Value Source: NWS Daily Summary

Daily Weather History Graph

Daily Weather History Graph

Search for Another Location

Airport:

Trip Planner

Search our weather history database for the weather conditions in past years. The results will help you decide how hot, cold, wet, or windy it might be!

Date:

Astronomy

Dec. 06, 2012 Rise Set
Actual Time 7:07 AM EST 4:33 PM EST
Civil Twilight 6:37 AM EST 5:03 PM EST
Nautical Twilight 6:03 AM EST 5:37 PM EST
Astronomical Twilight 5:30 AM EST 6:10 PM EST
Moon No Moon Rise 11:58 AM EST (12/6)
Length of Visible Light 10h 25m
Length of Day
9h 25m
Waning Gibbous, 49% of the Moon is Illuminated
Dec 6
Waning Gibbous
Dec 13
New
Dec 20
First Quarter
Dec 28
Full
Jan 4
Last Quarter

Hourly Weather History & Observations

Time (EST) Temp. Windchill Dew Point Humidity Pressure Visibility Wind Dir Wind Speed Gust Speed Precip Events Conditions
12:53 AM 30.9 °F 26.2 °F 18.0 °F 59% 30.26 in 10.0 mi NNW 4.6 mph - N/A   Clear
1:53 AM 32.0 °F 28.7 °F 18.0 °F 56% 30.28 in 10.0 mi Variable 3.5 mph - N/A   Clear
2:53 AM 30.9 °F 25.2 °F 18.0 °F 59% 30.28 in 10.0 mi NNW 5.8 mph - N/A   Clear
3:53 AM 30.0 °F 25.2 °F 18.0 °F 61% 30.28 in 10.0 mi NNW 4.6 mph - N/A   Clear
4:53 AM 28.9 °F 23.9 °F 18.0 °F 64% 30.29 in 10.0 mi North 4.6 mph - N/A   Clear
5:53 AM 28.9 °F 25.2 °F 18.0 °F 64% 30.31 in 10.0 mi North 3.5 mph - N/A   Clear
6:53 AM 28.0 °F 21.7 °F 18.0 °F 66% 30.32 in 10.0 mi North 5.8 mph - N/A   Clear
7:53 AM 28.9 °F 25.2 °F 19.0 °F 67% 30.34 in 10.0 mi North 3.5 mph - N/A   Clear
8:53 AM 32.0 °F 28.7 °F 19.0 °F 59% 30.36 in 10.0 mi NE 3.5 mph - N/A   Clear
9:53 AM 34.0 °F 28.8 °F 18.0 °F 52% 30.37 in 10.0 mi North 5.8 mph - N/A   Clear
10:53 AM 36.0 °F - 18.0 °F 48% 30.36 in 10.0 mi Calm Calm - N/A   Clear
11:53 AM 37.9 °F 34.4 °F 18.0 °F 45% 30.32 in 10.0 mi East 4.6 mph - N/A   Clear
12:53 PM 37.9 °F - 19.0 °F 47% 30.30 in 10.0 mi Calm Calm - N/A   Clear
1:53 PM 39.0 °F - 18.0 °F 43% 30.28 in 10.0 mi Calm Calm - N/A   Clear
2:53 PM 39.9 °F - 18.0 °F 41% 30.27 in 10.0 mi Calm Calm - N/A   Clear
3:53 PM 39.0 °F - 17.1 °F 41% 30.28 in 10.0 mi Calm Calm - N/A   Clear
4:53 PM 37.9 °F - 18.0 °F 45% 30.28 in 10.0 mi Calm Calm - N/A   Clear
5:53 PM 34.0 °F - 19.0 °F 54% 30.27 in 10.0 mi Calm Calm - N/A   Clear
6:53 PM 33.1 °F - 19.9 °F 59% 30.28 in 10.0 mi Calm Calm - N/A   Clear
7:53 PM 32.0 °F - 19.9 °F 61% 30.29 in 10.0 mi Calm Calm - N/A   Clear
8:53 PM 30.9 °F - 19.9 °F 64% 30.29 in 10.0 mi Calm Calm - N/A   Clear
9:53 PM 30.9 °F 26.2 °F 23.0 °F 72% 30.28 in 10.0 mi South 4.6 mph - N/A   Clear
10:53 PM 30.0 °F 25.2 °F 23.0 °F 75% 30.29 in 10.0 mi SSW 4.6 mph - N/A   Clear
11:53 PM 30.9 °F - 24.1 °F 76% 30.27 in 10.0 mi Calm Calm - N/A   Clear